Location: Chimay
(50.0486°N, 4.3171°E)
Time: 00:10:19
(UTC+00:00)

Cosmos 1242 Rocket - Pass Details

Date: 08 August 2020
Orbit: 448 x 486 km, 81.2° (Epoch: 23 September)

Event Time Altitude Azimuth Distance (km) Brightness Sun altitude
Rises 22:06:19 0° 356° (N) 2,528 7.4 -20.4°
Reaches altitude 10° 22:08:38 10° 9° (N) 1,653 6.0 -20.6°
Maximum altitude 22:11:46 27° 70° (ENE) 946 3.9 -20.8°
Enters shadow 22:11:47 27° 70° (ENE) 946 3.9 -20.8°
